RH
66 66 65 64 63 63 65 64 63 68 65 67 64 64 64 67 64 57 65 52 49 47 58 50 55 49 47 56 50 44 65 65 52 37 28 29 37 33 31 35 36 39 46 67 83
66 66 66 68 67 64 64 62 68 68 64 66 63 64 64 64 59 58 45 49 48 49 58 50 56 53 60 58 56 58 70 56 37 30 31 26 35 32 35 38 42 52 51 65 77
65 66 67 65 69 66 66 64 66 68 66 66 65 65 64 57 61 42 51 53 56 58 52 40 41 51 60 44 49 48 60 37 28 31 32 36 35 32 34 41 44 50 58 62 75
66 67 68 68 67 68 66 64 68 68 64 64 62 65 62 58 56 49 56 51 57 55 53 41 44 55 59 49 34 44 32 31 31 32 31 40 33 36 33 46 41 44 42 55 74
68 68 68 69 68 69 68 66 64 64 66 62 63 65 62 63 50 48 55 58 52 63 53 47 50 51 54 38 34 37 33 26 23 32 33 27 35 32 34 39 40 41 40 58 87
68 69 69 70 70 68 69 67 66 66 65 61 61 65 70 66 26 36 47 51 47 55 52 49 51 46 44 39 38 34 30 29 27 28 31 35 35 34 36 38 42 43 54 73 79
68 69 70 71 71 70 67 68 67 67 64 58 62 63 65 52 18 24 25 28 28 37 49 43 39 45 41 47 31 32 38 34 28 27 30 31 39 38 32 34 43 49 64 73 79
68 68 69 71 73 72 67 69 68 68 61 60 60 57 63 26 16 17 16 17 18 18 23 36 34 40 42 34 30 42 41 54 32 26 26 32 52 35 29 36 48 55 65 70 73
68 68 69 70 73 69 70 69 67 62 62 66 68 62 52 28 19 18 19 20 21 21 21 20 38 45 43 49 51 38 44 37 33 20 25 32 45 41 41 39 40 57 66 69 70
68 69 70 69 72 70 65 64 59 64 65 57 49 60 35 29 22 22 22 21 24 30 36 38 45 48 48 55 69 48 41 32 30 21 24 32 37 49 47 41 42 55 66 70 70
69 70 69 68 70 66 59 63 77 76 58 52 47 31 24 23 23 29 27 24 24 32 40 41 48 47 42 40 50 49 48 48 33 28 31 31 31 42 52 55 51 58 70 70 64
70 72 70 68 69 61 48 39 43 46 47 49 35 24 22 24 33 30 25 32 33 40 33 41 49 35 28 30 42 45 46 40 32 26 33 34 39 53 54 62 66 61 61 66 61
68 73 69 66 61 62 43 46 38 35 44 33 39 27 29 28 38 35 31 36 35 39 37 47 39 30 34 41 41 42 54 46 43 32 33 37 44 42 61 78 70 67 64 57 59
67 67 53 57 58 41 47 42 38 44 60 45 34 34 29 33 42 26 25 41 40 43 36 40 35 38 46 45 40 42 33 41 48 61 82 52 88 46 64 86 85 80 76 70 59
67 66 51 48 47 47 45 41 41 54 93 63 37 28 33 42 41 33 25 31 43 40 42 56 54 56 54 56 50 50 49 48 54 70 77 60 94 74 64 88 90 87 80 76 66
64 63 56 37 41 50 44 47 57 83 97 54 36 39 41 39 39 30 26 28 35 40 38 56 47 62 71 53 53 47 48 51 57 84 96 68 83 82 88 92 84 87 76 74 70
60 50 39 30 51 48 50 61 92 87 45 55 54 42 44 42 36 31 36 50 67 83 58 52 70 67 67 73 49 66 82 95 98 97 89 62 70 85 96 91 90 89 91 91 88
58 56 43 32 43 48 57 76 78 42 47 39 40 33 35 39 37 41 48 66 48 64 79 84 96 93 84 82 91 85 90 96 96 95 90 71 88 99 96 91 96 97 98 95 98
62 32 35 31 37 47 48 61 51 44 39 40 42 37 26 31 38 44 53 66 58 64 93 91 91 88 73 79 75 95 97 98 98 90 96 94 97 97 89 91 92 97 96 98 98
51 33 34 27 36 26 31 44 38 31 29 27 25 23 30 34 37 47 62 44 46 50 51 84 94 70 56 73 78 88 91 97 99 99 93 96 97 95 96 97 96 97 98 98 98
39 37 28 29 22 27 42 35 31 26 26 26 28 26 31 35 36 51 70 56 39 43 48 60 90 68 60 95 100 90 96 90 95 96 100 96 98 97 96 96 97 97 97 97 97
33 39 27 31 29 28 40 32 27 33 27 29 29 29 31 34 40 49 58 51 37 41 59 65 88 93 100 95 88 91 96 96 99 96 96 98 97 97 96 97 95 96 96 97 96
42 39 32 27 38 39 34 39 37 35 35 32 32 29 30 36 50 42 50 41 41 50 83 72 89 98 99 92 82 93 91 93 98 99 96 98 98 96 96 97 97 96 97 97 96
43 50 41 34 38 43 44 41 41 39 40 36 36 35 34 30 31 45 38 49 43 48 48 71 83 83 99 96 87 89 86 88 97 98 97 98 97 93 93 97 97 97 97 97 96
49 51 42 50 42 42 43 43 43 48 40 40 42 42 56 76 44 48 47 41 43 40 49 80 85 74 77 67 71 71 74 89 98 99 98 97 99 98 94 96 97 96 93 92 94
66 65 44 42 41 46 48 45 50 42 49 53 53 47 48 76 80 86 78 61 62 49 42 56 89 64 76 53 50 64 58 68 84 93 90 88 97 94 88 96 97 94 94 92 90
72 59 60 46 48 60 63 48 43 43 44 45 48 54 58 63 57 55 53 55 62 71 71 74 91 82 92 52 61 84 88 84 95 96 98 96 97 89 90 93 96 97 97 95 94
Wind_Speed
19 19 18 18 17 16 15 14 14 13 13 12 11 10 10 11 7 11 16 12 7 6 5 11 14 11 9 9 13 8 8 17 17 12 8 5 4 6 6 3 3 5 6 12 14
20 20 20 19 18 17 16 15 15 13 12 11 11 9 8 7 10 17 14 12 2 4 8 13 14 11 9 11 5 7 11 12 10 9 7 5 9 6 6 4 3 10 8 13 12
21 20 20 19 18 17 16 15 14 14 11 10 10 9 8 5 11 3 11 12 9 9 12 12 12 12 12 8 10 8 13 12 5 7 7 7 5 1 8 4 8 4 12 9 11
22 22 21 19 19 17 17 15 14 13 11 9 8 7 2 8 6 5 2 7 11 10 11 12 14 11 10 12 12 9 10 16 17 6 4 3 3 2 4 6 7 9 6 7 11
23 23 23 21 19 18 16 14 12 12 10 9 7 6 4 7 9 5 4 11 9 9 11 12 14 10 13 7 8 13 12 8 6 7 2 7 1 4 4 8 7 7 5 9 13
23 23 24 23 21 19 16 15 13 12 10 8 9 9 7 12 3 5 6 5 7 8 8 7 6 8 7 13 9 1 6 7 7 4 4 3 5 1 8 9 7 6 9 11 10
25 25 26 25 23 20 18 14 13 12 8 7 9 9 12 9 1 5 2 4 6 4 7 6 5 2 1 5 10 4 6 5 7 6 5 6 9 10 4 7 8 8 10 11 9
26 27 28 28 25 20 18 14 13 10 6 6 9 9 6 6 7 3 6 7 5 5 7 9 7 6 2 4 3 2 4 5 4 8 5 6 5 6 6 10 9 10 10 9 8
27 27 29 29 25 18 15 15 10 7 6 6 5 6 5 3 5 6 4 6 7 7 6 6 2 1 0 0 2 6 4 10 8 14 10 10 2 8 5 1 7 10 9 9 8
27 28 29 27 21 15 12 8 5 6 5 6 5 4 5 3 6 5 3 7 4 8 5 3 2 3 3 4 7 7 9 8 9 6 10 13 8 7 4 6 7 9 10 8 7
29 29 30 25 17 12 7 3 5 5 7 6 7 2 7 7 6 6 3 4 5 4 4 5 3 8 9 11 7 7 5 6 9 6 3 6 5 6 6 2 5 7 10 9 8
30 30 31 23 14 10 6 5 6 4 4 12 3 7 9 6 7 6 5 5 5 6 7 4 7 9 8 7 1 4 7 7 8 6 3 4 6 10 6 3 4 5 6 11 9
31 30 26 18 13 4 3 8 5 4 4 5 3 4 3 5 8 9 10 1 4 7 7 5 5 5 1 1 1 5 3 5 6 8 3 4 5 5 4 5 4 6 4 9 10
31 27 24 24 5 4 4 8 4 3 3 3 4 5 3 8 7 6 7 3 1 3 3 3 6 3 2 2 4 8 6 9 6 4 4 8 5 10 9 8 4 3 2 4 6
29 21 27 9 8 5 8 7 4 3 1 4 5 4 10 9 2 11 8 4 8 6 3 5 9 7 1 5 6 2 8 6 3 5 2 7 1 6 10 5 7 5 6 4 5
23 18 21 9 2 8 8 6 3 4 7 6 5 5 12 14 10 4 6 8 2 3 4 6 5 5 5 8 4 5 4 6 4 3 4 10 7 5 2 3 5 7 4 5 6
16 16 17 8 7 10 8 4 2 8 6 8 7 9 11 10 6 9 13 13 7 5 2 4 6 4 5 5 5 2 2 2 1 4 8 9 9 2 3 7 4 9 7 6 6
11 16 13 7 7 8 4 3 13 11 12 5 4 11 7 8 10 14 8 7 11 9 3 3 2 6 7 4 4 4 4 4 5 3 4 5 5 2 4 7 9 10 8 6 5
12 8 13 13 4 4 2 12 8 9 9 8 4 4 5 7 4 5 10 6 6 9 5 6 3 3 3 3 4 4 2 1 4 3 2 3 4 3 5 5 6 5 6 6 5
1 5 16 18 7 9 14 16 7 8 7 8 8 12 6 11 5 5 6 8 6 6 6 1 1 3 3 3 2 3 2 2 1 1 3 2 5 4 1 5 4 5 6 5 4
6 4 15 8 9 10 10 7 10 10 7 10 11 8 8 4 7 4 4 5 8 8 5 4 4 1 3 5 3 6 4 5 1 3 1 2 4 5 8 2 7 7 7 6 7
9 10 12 5 12 6 12 6 5 13 6 7 9 11 8 8 7 4 6 6 9 8 6 4 0 2 1 2 1 1 1 3 2 4 4 2 2 4 6 6 6 6 6 6 7
5 7 7 9 10 11 9 8 10 11 13 6 9 7 6 5 4 7 5 6 7 8 4 6 1 0 3 5 2 4 2 2 2 1 3 2 3 4 4 5 5 5 6 5 6
4 4 4 7 10 8 9 12 6 8 12 5 10 7 6 8 7 6 4 3 4 4 6 4 3 6 2 2 1 4 5 6 3 3 4 3 3 9 10 2 4 5 5 5 5
4 3 4 6 8 9 12 9 12 8 6 13 8 14 5 6 4 6 8 2 3 10 3 4 2 4 3 3 5 7 6 8 6 3 4 4 2 4 6 6 7 5 5 5 4
4 2 3 5 7 10 9 9 9 6 8 5 7 9 10 5 4 1 4 6 5 7 4 5 1 1 2 3 9 9 9 10 4 5 3 4 2 3 3 3 1 2 2 3 4
4 2 3 6 6 5 5 7 9 4 6 6 7 4 6 4 5 4 3 2 3 2 5 2 3 3 3 5 11 5 4 7 4 5 2 7 5 11 10 10 4 3 3 6 8
Wind_Direction
353 347 342 335 329 321 313 311 304 309 304 297 299 296 296 291 288 261 256 242 314 202 279 200 201 215 198 217 234 232 230 243 243 240 258 118 126 143 68 23 117 54 67 102 110
354 350 345 340 329 321 313 305 301 298 297 295 289 280 282 287 270 268 257 229 206 218 237 211 199 183 204 209 205 211 224 253 236 254 270 231 143 157 109 206 155 91 95 111 123
354 348 344 338 328 324 314 303 295 292 290 289 284 277 278 275 274 206 357 171 193 208 232 223 205 191 215 215 191 213 238 237 279 42 19 343 117 307 140 204 37 148 127 139 122
351 346 342 336 328 319 316 307 296 286 291 288 274 260 223 246 270 67 343 184 189 210 221 230 223 186 215 222 216 255 240 245 273 63 19 328 7 205 156 100 76 53 58 123 119
348 346 340 333 327 316 309 306 295 288 295 284 259 218 202 221 260 74 109 160 197 213 214 219 217 195 233 240 240 237 257 290 285 88 40 332 294 313 84 97 87 103 101 97 88
345 341 337 330 322 314 302 296 290 289 283 276 243 198 237 250 74 88 89 149 206 210 209 229 228 226 259 259 248 312 275 265 267 263 202 229 283 197 106 130 109 100 93 79 91
344 339 335 328 319 308 297 291 290 288 283 266 212 184 232 245 110 116 118 36 18 314 221 212 286 312 324 301 333 282 306 289 279 223 178 186 249 249 193 142 129 120 94 78 72
343 339 336 332 322 308 298 293 287 275 259 219 192 223 259 23 90 119 111 88 63 40 39 32 24 323 14 31 341 271 266 256 198 220 232 174 226 214 247 146 148 133 114 99 77
342 338 337 334 331 319 312 297 278 251 222 193 173 231 258 155 140 64 33 106 86 58 44 48 35 300 137 198 240 217 257 220 248 232 196 171 225 149 42 214 195 142 129 121 108
342 340 335 333 331 330 317 305 176 164 196 188 283 202 173 155 99 100 47 123 110 107 84 98 165 164 208 165 208 215 216 243 267 271 193 189 210 123 140 186 238 143 125 119 119
344 340 331 326 317 320 297 204 186 197 177 205 159 131 101 102 132 64 21 172 139 182 156 180 189 199 195 211 227 276 279 291 301 35 41 211 267 170 131 205 214 129 124 119 107
343 337 329 326 320 304 288 269 60 356 267 220 80 74 127 156 117 58 326 204 183 196 201 125 232 232 224 229 194 264 256 269 286 300 90 312 283 114 132 100 29 129 148 130 122
342 338 338 336 327 284 304 42 347 313 250 53 129 87 53 301 40 24 348 337 212 222 198 188 79 70 64 322 262 268 251 269 260 306 105 346 284 240 165 99 42 3 8 125 141
347 351 347 333 293 349 45 358 329 305 232 50 81 33 351 119 62 31 0 342 219 342 265 214 75 42 47 285 288 248 228 219 247 300 224 152 266 231 167 151 138 184 6 35 116
351 356 353 354 312 32 340 330 305 254 205 330 48 290 62 66 139 23 12 341 41 16 342 47 45 15 20 31 352 34 358 325 252 196 7 271 284 239 125 171 180 189 165 216 110
350 350 339 349 333 359 324 310 269 236 69 33 36 50 65 48 35 19 44 21 56 329 56 100 77 49 346 316 280 329 316 289 289 124 233 214 182 255 140 291 150 151 141 95 35
351 30 21 8 342 328 316 272 162 31 4 18 18 74 71 55 48 58 70 52 33 9 97 158 46 70 6 319 204 136 352 308 295 208 233 181 200 215 42 354 321 148 118 82 45
350 320 12 30 335 329 297 18 53 41 20 21 26 70 59 2 54 25 61 39 22 3 6 1 128 8 319 33 341 307 165 177 231 200 268 162 212 104 42 36 50 65 82 95 90
311 17 5 345 4 317 23 49 31 12 344 328 291 32 80 39 70 83 73 30 40 20 55 8 87 142 54 15 354 330 32 248 333 205 225 154 105 107 87 72 73 77 89 79 83
293 17 10 345 13 67 71 80 67 19 333 11 54 18 66 14 58 69 43 4 14 35 321 316 312 304 102 147 340 157 285 33 314 276 259 297 82 46 45 98 96 89 77 80 83
26 33 347 2 30 46 59 56 47 26 31 32 22 42 55 53 39 68 51 40 15 344 294 360 116 258 98 17 344 355 24 344 25 236 222 306 75 8 328 56 82 59 61 61 57
48 62 343 345 60 42 50 25 23 24 39 53 37 45 37 16 29 80 64 35 357 347 5 65 248 32 107 271 4 51 31 19 78 357 322 189 98 349 309 69 89 82 78 72 63
67 64 11 355 57 58 85 85 53 44 33 31 32 25 32 17 79 50 71 16 16 16 24 338 11 223 4 337 234 75 18 186 245 265 353 338 66 328 332 81 100 105 92 90 87
51 42 14 33 48 59 53 43 70 42 41 52 30 33 23 53 57 46 41 65 20 18 2 351 334 82 118 185 223 49 41 360 105 36 337 43 333 3 351 62 105 114 110 98 87
46 58 358 23 38 58 59 34 45 23 50 16 31 34 33 33 48 31 4 32 116 358 55 62 69 81 104 117 91 70 69 60 65 239 63 294 17 291 316 349 40 82 124 135 132
80 59 25 50 62 44 26 34 33 29 16 13 23 51 48 70 120 292 5 17 43 317 34 346 296 251 152 140 99 70 53 64 73 4 4 359 87 339 292 302 91 50 9 180 173
337 9 77 23 30 54 10 22 27 9 53 34 344 59 50 39 5 3 51 103 161 28 337 62 23 18 140 158 142 96 333 89 81 24 203 36 10 6 7 5 18 74 43 8 358